DECAYED

STARLINK-2189, 47768 (Decayed)

Orbit data source: Space-Track

STARLINK-2189, 47768 was a payload satellite owned by SpaceX/Seattle (US) in LEO that was launched on Thu, 04 Mar 2021 UTC via an FALCON 9 launch vehicle from the Air Force Eastern Test Range (AFETR). Payload-class satellites include a variety of spacecraft equipped with specific instruments for various scientific and technological missions. These include communications satellites like Starlink; space stations such as the ISS; scientific satellites like the Hubble; Earth observation satellites from companies like Planet Labs, Umbra, and HawkEye 360; GPS; miniature CubeSats for education and research; and military/defense satellites.

Not visible in the next 10 days
Identifier
47768, 2021-017AY
Orbit
Decayed
Country
Flag of USUS
Related business
Manufacturer
SpaceX/Seattle
Mission
Decayed Commercial Communications
Bus & Motor
STARLINK, Unknown motor
Mass
260 kg wet, ~248 kg dry
Launch date (UTC)
2021-03-04 (5 years ago)
Launch vehicle
FALCON 9
Launch site
Air Force Eastern Test Range (AFETR)
Object type
Payload
Rocket body
Debris
Shape & HBR
Box + 1 Pan, 10.1 m
Radar Cross Section
13.562 m², Large (>1 m²)

Expand to show TLE details & history
Last TLE update: 2 years ago

TLE from 2 years ago
0 STARLINK-2189
1 47768U 21017AY  24365.04497350  .16656637  12471-4  56699-3 0  9992
2 47768  53.0257 353.6511 0001563 153.6648 320.7963 16.44752584211716
Epoch: 2024-12-30T01:04Z
TLE epoch observation values (Epoch: 2024-12-30T01:04:45.710Z)
Latitude
46.80868°
Longitude
5.61253°
Altitude
157.437 km
Speed
7.818 km/s
True Right ascension
08h 03m 06s
True Declination
46° 37' 16"
Sunlit
Object was in full shadow at epoch
Visualization orbit readout
Latitude
Unknown
Longitude
Unknown
Altitude
Unknown
Speed
Unknown
Apparent Right ascension
Unknown
Apparent Declination
Unknown
Sunlit
N/A
Visualization observer readout
Local Sidereal Time
05:48:59
Azimuth
Unknown
Elevation
Unknown
Doppler factor
Unknown
Orbital elements
Apogee altitude
154.503 km
Perigee altitude
152.461 km
Semi-major axis
6,531.619 km
Eccentricity
0.00016
Inclination
53.0257°
RAAN
353.6511°
Arg. of periapsis
153.6648°
True anomaly
320.78498°
Mean anomaly
320.7963°
Eccentric anomaly
320.79064°
Mean motion
4.11161 °/min
Orbital period
87.56 mins
BSTAR
0.00056699
Loading maneuver chart data...
Computing Atmospheric mass density...

Documentation

Showing up to 5 results
|